Time,TemperatureF,DewpointF,PressureIn,WindDirection,WindDirectionDegrees,WindSpeedMPH,WindSpeedGustMPH,Humidity,HourlyPrecipIn,Conditions,Clouds,dailyrainin,SoftwareType,DateUTC
2013-07-05 03:23:00,61.0,35.0,-100.00,SW,225,9.0,10.0,38,-99.99,,,0.00,,2013-07-05 09:23:00,
2013-07-05 04:03:00,61.0,35.0,-100.00,SW,225,9.0,10.0,38,-99.99,,,0.00,,2013-07-05 10:03:00,
2013-07-05 04:23:00,59.0,33.0,-100.00,SW,235,12.0,12.0,38,-99.99,,,0.00,,2013-07-05 10:23:00,
2013-07-05 05:04:00,59.0,33.0,-100.00,SW,235,12.0,12.0,38,-99.99,,,0.00,,2013-07-05 11:04:00,
2013-07-05 05:14:00,59.0,33.0,-100.00,SW,235,12.0,12.0,38,-99.99,,,0.00,,2013-07-05 11:14:00,
2013-07-05 05:23:00,59.0,33.0,-100.00,SW,225,13.0,14.0,38,-99.99,,,0.00,,2013-07-05 11:23:00,
2013-07-05 06:05:00,59.0,33.0,-100.00,SW,225,13.0,14.0,38,-99.99,,,0.00,,2013-07-05 12:05:00,
2013-07-05 06:12:00,59.0,33.0,-100.00,SW,225,13.0,14.0,38,-99.99,,,0.00,,2013-07-05 12:12:00,
2013-07-05 07:23:00,59.0,46.0,-100.00,North,5,16.0,19.0,62,-99.99,,,0.00,,2013-07-05 13:23:00,
2013-07-05 07:58:00,59.0,46.0,-100.00,North,5,16.0,19.0,62,-99.99,,,0.00,,2013-07-05 13:58:00,
2013-07-05 08:12:00,59.0,46.0,-100.00,North,5,16.0,19.0,62,-99.99,,,0.00,,2013-07-05 14:12:00,
2013-07-05 08:56:00,62.0,49.0,-100.00,North,350,9.0,13.0,62,-99.99,,,0.00,,2013-07-05 14:56:00,
2013-07-05 09:05:00,62.0,49.0,-100.00,North,350,9.0,13.0,62,-99.99,,,0.00,,2013-07-05 15:05:00,
2013-07-05 09:13:00,62.0,49.0,-100.00,North,350,9.0,13.0,62,-99.99,,,0.00,,2013-07-05 15:13:00,
2013-07-05 09:22:00,62.0,49.0,-100.00,North,350,9.0,13.0,62,-99.99,,,0.00,,2013-07-05 15:22:00,
2013-07-05 09:53:00,62.0,49.0,-100.00,NE,45,10.0,12.0,62,-99.99,,,0.00,,2013-07-05 15:53:00,
2013-07-05 10:01:00,62.0,49.0,-100.00,NE,45,10.0,12.0,62,-99.99,,,0.00,,2013-07-05 16:01:00,
2013-07-05 10:53:00,64.0,49.0,-100.00,East,80,8.0,12.0,58,-99.99,,,0.00,,2013-07-05 16:53:00,
2013-07-05 11:01:00,64.0,49.0,-100.00,East,80,8.0,12.0,58,-99.99,,,0.00,,2013-07-05 17:01:00,
2013-07-05 11:12:00,64.0,49.0,-100.00,East,80,8.0,12.0,58,-99.99,,,0.00,,2013-07-05 17:12:00,
2013-07-05 11:22:00,64.0,49.0,-100.00,East,80,8.0,12.0,58,-99.99,,,0.00,,2013-07-05 17:22:00,
2013-07-05 11:53:00,66.0,45.0,-100.00,NNE,15,6.0,9.0,47,-99.99,,,-99.99,,2013-07-05 17:53:00,
2013-07-05 12:01:00,66.0,45.0,-100.00,NNE,15,6.0,9.0,47,-99.99,,,-99.99,,2013-07-05 18:01:00,
2013-07-05 12:11:00,66.0,45.0,-100.00,NNE,15,6.0,9.0,47,-99.99,,,-99.99,,2013-07-05 18:11:00,
2013-07-05 12:22:00,66.0,45.0,-100.00,NNE,15,6.0,9.0,47,-99.99,,,-99.99,,2013-07-05 18:22:00,
2013-07-05 12:53:00,67.0,47.0,-100.00,NE,45,13.0,14.0,48,-99.99,,,0.00,,2013-07-05 18:53:00,
2013-07-05 13:01:00,67.0,47.0,-100.00,NE,45,13.0,14.0,48,-99.99,,,0.00,,2013-07-05 19:01:00,
2013-07-05 13:12:00,67.0,47.0,-100.00,NE,45,13.0,14.0,48,-99.99,,,0.00,,2013-07-05 19:12:00,
2013-07-05 13:22:00,67.0,47.0,-100.00,NE,45,13.0,14.0,48,-99.99,,,0.00,,2013-07-05 19:22:00,
2013-07-05 18:53:00,73.0,45.0,-100.00,NE,55,11.0,12.0,37,-99.99,,,0.00,,2013-07-06 00:53:00,
2013-07-05 19:02:00,73.0,45.0,-100.00,NE,55,11.0,12.0,37,-99.99,,,0.00,,2013-07-06 01:02:00,
2013-07-05 19:12:00,73.0,45.0,-100.00,NE,55,11.0,12.0,37,-99.99,,,0.00,,2013-07-06 01:12:00,
2013-07-05 19:22:00,73.0,45.0,-100.00,NE,55,11.0,12.0,37,-99.99,,,0.00,,2013-07-06 01:22:00,
2013-07-05 19:53:00,74.0,46.0,-100.00,NE,50,8.0,9.0,37,-99.99,,,0.00,,2013-07-06 01:53:00,
2013-07-05 20:02:00,74.0,46.0,-100.00,NE,50,8.0,9.0,37,-99.99,,,0.00,,2013-07-06 02:02:00,
2013-07-05 20:11:00,74.0,46.0,-100.00,NE,50,8.0,9.0,37,-99.99,,,0.00,,2013-07-06 02:11:00,
2013-07-05 20:22:00,74.0,46.0,-100.00,NE,50,8.0,9.0,37,-99.99,,,0.00,,2013-07-06 02:22:00,
2013-07-05 21:22:00,61.0,51.0,-100.00,NW,310,24.0,30.0,70,-99.99,,,0.00,,2013-07-06 03:22:00,
2013-07-05 21:53:00,61.0,51.0,-100.00,NW,310,24.0,30.0,70,-99.99,,,0.00,,2013-07-06 03:53:00,
2013-07-05 22:01:00,61.0,51.0,-100.00,NW,310,24.0,30.0,70,-99.99,,,0.00,,2013-07-06 04:01:00,
2013-07-05 22:12:00,61.0,51.0,-100.00,NW,310,24.0,30.0,70,-99.99,,,0.00,,2013-07-06 04:12:00,
2013-07-05 22:53:00,57.0,50.0,-100.00,North,355,6.0,8.0,76,-99.99,,,0.00,,2013-07-06 04:53:00,
2013-07-05 23:02:00,57.0,50.0,-100.00,North,355,6.0,8.0,76,-99.99,,,0.00,,2013-07-06 05:02:00,
2013-07-05 23:12:00,57.0,50.0,-100.00,North,355,6.0,8.0,76,-99.99,,,0.00,,2013-07-06 05:12:00,
2013-07-05 23:22:00,57.0,50.0,-100.00,North,355,6.0,8.0,76,-99.99,,,0.00,,2013-07-06 05:22:00,